Location: Bow
(51.5261°N, 0.0167°W)
Time: 11:57:40
(UTC+00:00)

Lacrosse 5 rocket - Pass Details

Date: 18 September 2020
Orbit: 460 x 635 km, 57.0° (Epoch: 23 October)

Event Time Altitude Azimuth Distance (km) Brightness Sun altitude
Rises 19:45:10 0° 267° (W) 2,761 6.1 -15.7°
Reaches altitude 10° 19:47:26 10° 273° (W) 1,895 5.2 -16.0°
Maximum altitude 19:51:37 46° 348° (NNW) 813 2.4 -16.6°
Enters shadow 19:55:10 15° 58° (ENE) 1,686 3.5 -17.1°
